This demonstration page uses our WeatherBlox Daily Observations layout. Learn more.

Left ArrowRight Arrow

38.20091, -84.87328

Hourly Observations for October 4, 2022

Temp ( °F °C ) Dew Point ( °F °C ) Humidity (%) Winds ( mph kmh ) Pressure ( in mb ) Visibility ( mi km ) Precip ( " mm )
12:53 am 00:53 Clear 45 7.2 41 5 86 86 Calm 30.21 1023 10 16 0.00 0.00
1:53 am 01:53 Clear 42 5.6 40 4.4 92 92 Calm 30.21 1023 10 16 0.00 0.00
2:53 am 02:53 Clear 42 5.6 39 3.9 89 89 N 3 6 30.21 1023 10 16 0.00 0.00
3:53 am 03:53 Clear 41 5 37 2.8 86 86 Calm 30.21 1023 10 16 0.00 0.00
4:53 am 04:53 Clear 40 4.4 37 2.8 89 89 Calm 30.20 1023 10 16 0.00 0.00
5:53 am 05:53 Clear 38 3.3 35 1.7 89 89 Calm 30.20 1023 10 16 0.00 0.00
6:53 am 06:53 Clear 37 2.8 35 1.7 92 92 Calm 30.22 1023 10 16 0.00 0.00
7:53 am 07:53 Sunny 37 2.8 35 1.7 92 92 Calm 30.22 1023 10 16 0.00 0.00
8:53 am 08:53 Sunny 43 6.1 39 3.9 86 86 Calm 30.23 1024 10 16 0.00 0.00
9:53 am 09:53 Sunny 51 10.6 43 6.1 74 74 Calm 30.23 1024 10 16 0.00 0.00
10:53 am 10:53 Sunny 57 13.9 44 6.7 62 62 Calm 30.24 1024 10 16 0.00 0.00
11:53 am 11:53 Sunny 62 16.7 41 5 46 46 VRB 3 6 30.22 1023 10 16 0.00 0.00
12:53 pm 12:53 Sunny 66 18.9 42 5.6 42 42 VRB 5 7 30.20 1023 10 16 0.00 0.00
1:53 pm 13:53 Sunny 68 20 40 4.4 36 36 NNE 6 9 30.19 1022 10 16 0.00 0.00
2:53 pm 14:53 Sunny 71 21.7 37 2.8 29 29 VRB 3 6 30.16 1021 10 16 0.00 0.00
3:53 pm 15:53 Sunny 72 22.2 37 2.8 28 28 VRB 5 7 30.14 1021 10 16 0.00 0.00
4:53 pm 16:53 Sunny 73 22.8 36 2.2 26 26 NNE 6 9 30.13 1020 10 16 0.00 0.00
5:53 pm 17:53 Sunny 71 21.7 37 2.8 29 29 NW 7 11 30.13 1020 10 16 0.00 0.00
6:53 pm 18:53 Sunny 67 19.4 39 3.9 36 36 NNW 5 7 30.13 1020 10 16 0.00 0.00
7:53 pm 19:53 Clear 55 12.8 44 6.7 66 66 NNW 3 6 30.14 1021 10 16 0.00 0.00
8:53 pm 20:53 Clear 54 12.2 42 5.6 64 64 Calm 30.15 1021 10 16 0.00 0.00
9:53 pm 21:53 Clear 48 8.9 42 5.6 80 80 Calm 30.14 1021 10 16 0.00 0.00
10:53 pm 22:53 Clear 49 9.4 43 6.1 80 80 Calm 30.14 1021 10 16 0.00 0.00
11:53 pm 23:53 Clear 46 7.8 42 5.6 86 86 Calm 30.14 1021 10 16 0.00 0.00

Powered by AerisWeather